FW5769 Weather Reports


Display with metric or nautical units.
time (UTC)temp
F
wind
direction
speed
MPH
gust
MPH
rain 1hr
in
rain 24hr
in
rain mn
in
humidity
%
barometer
mb
20260510211544 82 336 0.0 0.0 0.00 0.00 0.00 32 1013.0
20260510210043 82 336 0.0 0.0 0.00 0.00 0.00 31 1013.1
20260510204543 81 336 0.0 1.0 0.00 0.00 0.00 35 1013.1
20260510203042 82 336 0.0 1.0 0.00 0.00 0.00 36 1013.3
20260510201540 81 336 0.0 0.0 0.00 0.00 0.00 33 1013.4
20260510200107 81 336 0.0 0.0 0.00 0.00 0.00 33 1013.6
20260510194551 81 336 0.0 4.0 0.00 0.00 0.00 34 1013.9
20260510193043 80 336 0.0 4.0 0.00 0.00 0.00 35 1014.0
20260510191541 79 341 0.0 0.0 0.00 0.00 0.00 38 1013.9
20260510190032 79 341 0.0 3.0 0.00 0.00 0.00 34 1013.9
20260510184531 78 341 0.0 0.0 0.00 0.00 0.00 32 1014.0
20260510183042 78 341 0.0 3.0 0.00 0.00 0.00 38 1014.2
20260510181529 78 341 0.0 3.0 0.00 0.00 0.00 38 1014.3
20260510180025 77 341 0.0 4.0 0.00 0.00 0.00 36 1014.5
20260510174524 77 341 0.0 4.0 0.00 0.00 0.00 39 1014.4
20260510173023 77 341 0.0 3.0 0.00 0.00 0.00 41 1014.6
20260510171522 77 341 2.0 5.0 0.00 0.00 0.00 41 1014.8
20260510170021 77 341 0.0 3.0 0.00 0.00 0.00 42 1015.0
20260510164524 77 341 0.0 3.0 0.00 0.00 0.00 50 1014.9
20260510163017 76 341 0.0 2.0 0.00 0.00 0.00 50 1015.0
20260510161516 76 341 0.0 2.0 0.00 0.00 0.00 50 1015.0
20260510160016 75 341 0.0 4.0 0.00 0.00 0.00 52 1015.2
20260510154509 73 341 0.0 3.0 0.00 0.00 0.00 50 1015.1
20260510153007 72 341 0.0 3.0 0.00 0.00 0.00 57 1015.2
20260510151504 71 341 0.0 3.0 0.00 0.00 0.00 60 1015.1
20260510150100 71 341 0.0 2.0 0.00 0.00 0.00 58 1015.1
20260510144557 70 341 0.0 3.0 0.00 0.00 0.00 61 1015.2
20260510143054 69 342 1.0 6.0 0.00 0.00 0.00 63 1015.2
20260510141600 68 346 2.0 8.0 0.00 0.00 0.00 62 1015.3
20260510140052 67 51 0.0 4.0 0.00 0.00 0.00 73 1015.2
20260510134544 65 51 0.0 0.0 0.00 0.00 0.00 80 1015.2
20260510133059 64 51 0.0 0.0 0.00 0.00 0.00 82 1015.2
20260510131545 64 51 0.0 3.0 0.00 0.00 0.00 82 1015.2
20260510130041 63 51 3.0 5.0 0.00 0.00 0.00 84 1015.2
20260510124541 62 53 0.0 0.0 0.00 0.00 0.00 87 1015.1
20260510123049 61 53 0.0 0.0 0.00 0.00 0.00 91 1015.0
20260510121535 60 55 0.0 0.0 0.00 0.00 0.00 93 1014.7
20260510120033 59 55 0.0 0.0 0.00 0.00 0.00 94 1014.3
20260510114534 59 55 0.0 0.0 0.00 0.00 0.00 95 1013.9
20260510113033 59 55 0.0 0.0 0.00 0.00 0.00 95 1013.8
20260510111527 59 55 0.0 0.0 0.00 0.00 0.00 95 1013.7
20260510110024 59 55 0.0 0.0 0.00 0.00 0.00 95 1013.5
20260510104522 59 55 0.0 0.0 0.00 0.00 0.00 95 1013.3
20260510103019 59 55 0.0 0.0 0.00 0.00 0.00 94 1012.8
20260510101518 59 55 0.0 0.0 0.00 0.00 0.00 94 1012.7
20260510100016 59 55 0.0 0.0 0.00 0.00 0.00 94 1012.4
20260510094514 59 55 0.0 0.0 0.00 0.00 0.00 94 1012.3
20260510093012 60 55 0.0 0.0 0.00 0.00 0.00 93 1012.1
20260510091512 60 55 0.0 0.0 0.00 0.00 0.00 93 1012.0
20260510090009 60 55 0.0 0.0 0.00 0.00 0.00 94 1011.9
20260510084508 60 55 0.0 0.0 0.00 0.00 0.00 93 1011.9
20260510083007 61 55 0.0 0.0 0.00 0.00 0.00 93 1011.7
20260510081510 61 55 0.0 0.0 0.00 0.00 0.00 93 1011.4
20260510080005 61 55 0.0 0.0 0.00 0.00 0.00 94 1011.3
20260510074505 61 55 0.0 0.0 0.00 0.00 0.00 94 1011.3
20260510073006 61 55 0.0 0.0 0.00 0.00 0.00 93 1011.1
20260510071502 61 55 0.0 0.0 0.00 0.00 0.00 92 1011.0
20260510070003 61 55 0.0 0.0 0.00 0.00 0.00 92 1011.1
20260510064603 62 55 0.0 0.0 0.00 0.00 0.00 92 1011.0
20260510063102 62 55 0.0 0.0 0.00 0.00 0.00 92 1010.9
20260510061600 62 55 0.0 0.0 0.00 0.00 0.00 91 1011.1
20260510060056 62 55 0.0 0.0 0.00 0.00 0.00 91 1010.9
20260510054555 63 55 0.0 0.0 0.00 0.00 0.00 90 1011.1
20260510053053 63 55 0.0 0.0 0.00 0.00 0.00 89 1011.3
20260510051555 63 55 0.0 0.0 0.00 0.00 0.00 89 1011.3
20260510050054 63 55 0.0 0.0 0.00 0.00 0.00 88 1011.5
20260510044551 64 55 0.0 0.0 0.00 0.00 0.00 87 1011.5
20260510043053 64 55 0.0 0.0 0.00 0.00 0.00 86 1011.2
20260510041548 64 55 0.0 0.0 0.00 0.00 0.00 86 1011.3
20260510040046 65 55 0.0 0.0 0.00 0.00 0.00 85 1011.4
20260510034540 65 55 0.0 0.0 0.00 0.00 0.00 84 1011.5
20260510033043 65 55 0.0 0.0 0.00 0.00 0.00 84 1011.5
20260510031550 66 55 0.0 0.0 0.00 0.00 0.00 83 1011.3
20260510030039 66 55 0.0 0.0 0.00 0.00 0.00 82 1011.3
20260510024539 66 55 0.0 0.0 0.00 0.00 0.00 82 1011.4
20260510023038 66 55 0.0 0.0 0.00 0.00 0.00 81 1011.2
20260510021540 67 55 0.0 0.0 0.00 0.00 0.00 81 1011.1
20260510020037 67 55 0.0 0.0 0.00 0.00 0.00 81 1010.9
20260510014537 67 55 0.0 0.0 0.00 0.00 0.00 80 1010.8
20260510013035 67 55 0.0 0.0 0.00 0.00 0.00 80 1010.6
20260510011535 68 55 0.0 0.0 0.00 0.00 0.00 79 1010.5
20260510010034 68 55 0.0 0.0 0.00 0.00 0.00 78 1010.1
20260510004533 69 55 0.0 0.0 0.00 0.00 0.00 77 1009.9
20260510003034 69 55 0.0 2.0 0.00 0.00 0.00 76 1009.7
20260510001533 69 54 0.0 3.0 0.00 0.00 0.00 75 1009.3
20260510000034 70 53 0.0 0.0 0.00 0.00 0.00 75 1009.1
20260509234535 70 52 0.0 0.0 0.00 0.00 0.00 74 1009.0
20260509233031 70 52 0.0 0.0 0.00 0.00 0.00 73 1009.0
20260509231531 71 52 0.0 4.0 0.00 0.00 0.00 72 1009.0
20260509230030 71 52 0.0 3.0 0.00 0.00 0.00 71 1009.1
20260509224530 71 25 0.0 4.0 0.00 0.00 0.00 70 1008.7
20260509223031 72 21 0.0 6.0 0.00 0.00 0.00 70 1008.9
20260509221529 72 127 0.0 3.0 0.00 0.00 0.00 70 1008.4
20260509220028 72 126 0.0 2.0 0.00 0.00 0.00 69 1008.4
20260509214526 73 120 0.0 3.0 0.00 0.00 0.00 68 1008.7